"startDT [UTC]","vpos","CH4 [ppm]","stdev(CH4) [ppm]","CO2 [ppm]","stdev(CO2) [ppm]","H2O [ppm]","stdev(H2O)","p_LGR [torr]","T_LGR [C]","mt1_LGR [us]","mt2_LGR [us]","T_ECpre [C]","T_EC1 [C]","T_EC2 [C]","p_inlet [hPa]","p_in [hPa]","p_out [hPa]","T_inlet [C]","RH_inlet [%]","dwpt_inlet [C]","T_vent [C]","RH_vent [%]","dwpt_vent [C]","flow_vent [l min-1]","flow_inlet [l min-1]","dwpt_sample [C]","T_room [C]"
2012-06-17 00:00:00,0.0,1.9022,0.0008,399.23,0.35,5.6,12.1,138.07,30.44,24.64,36.48,0.92,17.23,-27.10,-52,525,-918,21.4,24.7,0.3,21.8,1.7,-31.1,5.73,2.33,-28.8,28.0
2012-06-17 00:01:00,0.0,1.9024,0.0009,399.29,0.28,8.8,14.5,138.07,30.44,24.64,36.47,0.93,17.26,-27.09,-52,525,-917,21.4,24.8,0.4,21.8,1.7,-31.1,5.73,2.30,-28.8,28.1
2012-06-17 00:02:00,0.0,1.9020,0.0008,399.19,0.30,7.9,16.5,138.07,30.44,24.64,36.47,0.93,17.29,-27.09,-52,525,-917,21.4,24.8,0.4,21.8,1.7,-31.1,5.73,2.34,-28.8,28.0
2012-06-17 00:03:00,0.0,1.9022,0.0008,399.25,0.27,4.3,11.4,138.07,30.44,24.64,36.47,0.93,17.33,-27.09,-52,525,-918,21.4,25.0,0.5,21.8,1.7,-31.1,5.73,2.30,-28.8,28.0
2012-06-17 00:04:00,0.0,1.9023,0.0009,399.27,0.33,5.0,14.1,138.07,30.44,24.64,36.47,0.94,17.36,-27.08,-52,525,-917,21.4,25.0,0.5,21.8,1.7,-31.2,5.73,2.34,-28.8,28.0
2012-06-17 00:05:00,0.0,1.9026,0.0009,399.25,0.30,5.6,14.2,138.07,30.44,24.64,36.47,0.94,17.39,-27.08,-52,525,-917,21.4,25.0,0.5,21.8,1.7,-31.2,5.73,2.30,-28.8,28.0
2012-06-17 00:06:00,0.0,1.9017,0.0008,399.11,0.28,8.3,14.2,138.07,30.44,24.64,36.48,0.94,17.41,-27.09,-52,525,-918,21.4,25.1,0.6,21.8,1.7,-31.2,5.73,2.33,-28.8,28.0
2012-06-17 00:07:00,0.0,1.9020,0.0009,399.24,0.32,8.6,17.1,138.07,30.44,24.64,36.48,0.94,17.44,-27.08,-52,525,-918,21.3,25.0,0.5,21.8,1.7,-31.2,5.73,2.31,-28.8,28.0
2012-06-17 00:08:00,0.0,1.9023,0.0009,399.20,0.33,4.7,11.2,138.07,30.44,24.64,36.47,0.94,17.47,-27.08,-52,525,-917,21.4,24.9,0.5,21.8,1.7,-31.2,5.73,2.32,-28.8,28.0
2012-06-17 00:09:00,0.0,1.9021,0.0009,399.20,0.31,9.7,16.4,138.07,30.44,24.64,36.47,0.93,17.49,-27.08,-52,525,-917,21.4,24.8,0.4,21.8,1.7,-31.2,5.73,2.33,-28.8,28.0
2012-06-17 00:10:00,0.0,1.9026,0.0009,399.24,0.32,7.0,16.0,138.07,30.44,24.64,36.47,0.93,17.51,-27.08,-52,525,-918,21.4,24.9,0.5,21.8,1.7,-31.2,5.73,2.30,-28.8,28.0
2012-06-17 00:11:00,0.0,1.9018,0.0008,399.22,0.33,8.3,14.0,138.07,30.43,24.64,36.47,0.91,17.53,-27.08,-52,525,-917,21.4,24.9,0.5,21.8,1.7,-31.3,5.73,2.34,-28.8,28.0
2012-06-17 00:12:00,0.0,1.9020,0.0008,399.20,0.28,8.4,16.6,138.07,30.43,24.64,36.47,0.90,17.55,-27.08,-52,525,-917,21.4,25.0,0.5,21.8,1.7,-31.2,5.73,2.30,-28.8,28.0
2012-06-17 00:13:00,0.0,1.9018,0.0008,399.21,0.28,5.1,11.9,138.07,30.44,24.65,36.47,0.90,17.57,-27.07,-52,525,-918,21.3,25.0,0.5,21.8,1.7,-31.3,5.73,2.34,-28.8,28.0
2012-06-17 00:14:00,0.0,1.9020,0.0009,399.27,0.30,8.5,18.4,138.07,30.44,24.64,36.46,0.90,17.59,-27.07,-52,525,-918,21.3,25.0,0.5,21.8,1.7,-31.3,5.73,2.30,-28.8,28.0
2012-06-17 00:15:00,0.0,1.9026,0.0009,399.42,0.26,8.6,15.0,138.07,30.44,24.64,36.46,0.92,17.61,-27.07,-52,525,-917,21.3,25.0,0.5,21.8,1.7,-31.3,5.73,2.34,-28.8,28.0
2012-06-17 00:16:00,0.0,1.9029,0.0009,399.43,0.32,6.7,13.5,138.07,30.44,24.64,36.47,0.90,17.63,-27.07,-52,525,-917,21.3,24.9,0.4,21.8,1.7,-31.3,5.73,2.31,-28.8,28.0
2012-06-17 00:17:00,0.0,1.9029,0.0009,399.47,0.30,3.7,9.8,138.07,30.44,24.64,36.46,0.92,17.65,-27.07,-52,525,-918,21.3,24.7,0.4,21.8,1.7,-31.3,5.73,2.32,-28.8,28.0
2012-06-17 00:18:00,0.0,1.9026,0.0009,399.40,0.31,6.3,14.1,138.07,30.44,24.64,36.47,0.91,17.66,-27.07,-52,525,-917,21.4,24.6,0.3,21.8,1.7,-31.3,5.73,2.33,-28.8,28.0
2012-06-17 00:19:00,0.0,1.9028,0.0009,399.37,0.31,3.8,12.4,138.07,30.44,24.64,36.47,0.91,17.68,-27.07,-52,525,-917,21.3,24.7,0.3,21.8,1.7,-31.3,5.73,2.31,-28.8,28.0
2012-06-17 00:20:00,0.0,1.9030,0.0009,399.31,0.24,5.0,13.3,138.07,30.43,24.64,36.47,0.93,17.69,-27.07,-52,525,-918,21.4,24.7,0.3,21.8,1.7,-31.3,5.73,2.34,-28.8,28.0
2012-06-17 00:21:00,0.0,1.9024,0.0012,399.28,0.30,7.6,17.0,138.07,30.43,24.64,36.47,0.93,17.70,-27.07,-52,525,-917,21.3,24.6,0.3,21.8,1.7,-31.3,5.73,2.30,-28.8,28.0
2012-06-17 00:22:00,0.0,1.9027,0.0009,399.42,0.32,4.9,10.2,138.07,30.43,24.64,36.47,0.94,17.72,-27.07,-52,525,-917,21.3,24.6,0.3,21.8,1.7,-31.3,5.73,2.34,-28.8,28.0
2012-06-17 00:23:00,0.0,1.9025,0.0009,399.45,0.34,6.0,12.9,138.07,30.43,24.64,36.46,0.94,17.73,-27.07,-52,525,-917,21.4,24.6,0.3,21.8,1.7,-31.3,5.73,2.30,-28.8,28.0
2012-06-17 00:24:00,0.0,1.9028,0.0010,399.38,0.33,4.6,9.6,138.07,30.43,24.64,36.47,1.02,17.68,-27.06,-52,525,-917,21.3,24.7,0.4,21.8,1.7,-31.3,5.73,2.34,-28.9,28.0
2012-06-17 00:25:00,0.0,1.9027,0.0009,399.36,0.24,5.0,11.6,138.07,30.44,24.64,36.47,1.02,16.48,-27.07,-52,525,-917,21.3,24.7,0.3,21.8,1.7,-31.3,5.73,2.31,-28.9,28.0
2012-06-17 00:26:00,0.0,1.9028,0.0009,399.33,0.28,5.9,13.0,138.07,30.44,24.64,36.47,1.08,14.31,-27.07,-52,525,-917,21.4,24.8,0.4,21.8,1.7,-31.3,5.73,2.33,-28.9,28.0
2012-06-17 00:27:00,0.0,1.9030,0.0010,399.38,0.27,6.1,13.7,138.07,30.44,24.64,36.47,0.98,11.99,-27.07,-52,525,-918,21.4,25.0,0.5,21.8,1.7,-31.3,5.73,2.32,-28.8,28.0
2012-06-17 00:28:00,0.0,1.9025,0.0009,399.27,0.30,7.4,15.0,138.07,30.44,24.64,36.47,0.97,9.68,-27.07,-52,525,-917,21.4,25.0,0.5,21.8,1.7,-31.3,5.73,2.31,-28.9,28.0
2012-06-17 00:29:00,0.0,1.9028,0.0008,399.28,0.32,6.7,12.3,138.07,30.44,24.64,36.47,1.06,7.46,-27.06,-52,525,-917,21.4,25.0,0.5,21.8,1.7,-31.2,5.73,2.34,-28.8,28.0
2012-06-17 00:30:00,0.0,1.9030,0.0009,399.31,0.30,4.9,11.6,138.07,30.45,24.64,36.47,1.06,5.33,-27.04,-52,525,-918,21.4,24.9,0.5,21.8,1.7,-31.2,5.73,2.30,-28.9,28.0
2012-06-17 00:31:00,0.0,1.9027,0.0009,399.43,0.26,5.2,12.5,138.07,30.45,24.64,36.47,0.97,3.29,-27.02,-52,525,-918,21.4,24.8,0.4,21.8,1.7,-31.1,5.73,2.34,-28.9,28.0
2012-06-17 00:32:00,0.0,1.9031,0.0009,399.40,0.27,4.0,10.8,138.07,30.45,24.64,36.47,1.04,1.36,-27.00,-52,525,-917,21.4,24.6,0.3,21.8,1.7,-31.1,5.73,2.32,-28.9,28.0
2012-06-17 00:33:00,0.0,1.9029,0.0009,399.40,0.35,2.7,10.3,138.07,30.45,24.64,36.47,1.07,-0.48,-26.99,-52,525,-917,21.4,24.5,0.3,21.9,1.7,-31.1,5.73,2.32,-28.9,28.0
2012-06-17 00:34:00,0.0,1.9029,0.0009,399.40,0.28,4.9,11.2,138.07,30.45,24.64,36.47,0.97,-2.22,-26.98,-52,525,-917,21.4,24.5,0.2,21.8,1.7,-31.1,5.73,2.34,-28.9,27.9
2012-06-17 00:35:00,0.0,1.9030,0.0009,399.33,0.27,3.0,8.4,138.07,30.45,24.64,36.47,0.98,-3.85,-26.96,-52,525,-918,21.4,24.4,0.2,21.9,1.7,-31.1,5.73,2.31,-28.9,27.9
2012-06-17 00:36:00,0.0,1.9029,0.0009,399.29,0.32,2.7,9.2,138.07,30.45,24.64,36.48,1.06,-5.39,-26.95,-52,525,-918,21.4,24.4,0.2,21.9,1.7,-31.1,5.73,2.34,-28.9,28.0
2012-06-17 00:37:00,0.0,1.9027,0.0009,399.39,0.28,3.3,10.5,138.07,30.46,24.64,36.47,1.03,-6.83,-26.95,-52,525,-917,21.4,24.4,0.2,21.9,1.7,-31.1,5.73,2.33,-28.9,28.0
2012-06-17 00:38:00,0.0,1.9032,0.0009,399.35,0.28,2.7,10.0,138.06,30.46,24.64,36.47,0.95,-8.14,-26.94,-52,525,-917,21.4,24.4,0.2,21.8,1.7,-31.1,5.73,2.31,-28.9,28.0
2012-06-17 00:39:00,0.0,1.9030,0.0009,399.49,0.32,2.6,8.7,138.07,30.46,24.64,36.47,0.99,-9.27,-26.94,-52,525,-917,21.4,24.3,0.2,21.9,1.7,-31.1,5.73,2.35,-29.0,28.0
2012-06-17 00:40:00,0.0,1.9034,0.0009,399.44,0.30,6.1,16.0,138.07,30.46,24.64,36.47,1.06,-10.41,-26.94,-52,525,-917,21.4,24.3,0.2,21.9,1.7,-31.1,5.73,2.32,-29.0,27.9
2012-06-17 00:41:00,0.0,1.9027,0.0010,399.49,0.35,4.3,12.1,138.07,30.46,24.64,36.47,1.01,-11.30,-26.93,-52,525,-918,21.4,24.3,0.2,21.9,1.7,-31.1,5.73,2.33,-29.0,27.9
2012-06-17 00:42:00,0.0,1.9033,0.0008,399.43,0.30,3.6,11.1,138.07,30.46,24.64,36.47,0.94,-12.40,-26.93,-52,525,-918,21.4,24.4,0.2,21.8,1.7,-31.1,5.73,2.35,-29.0,27.9
2012-06-17 00:43:00,0.0,1.9030,0.0009,399.41,0.34,2.6,9.9,138.07,30.46,24.64,36.47,1.00,-13.45,-26.95,-53,525,-917,21.4,24.5,0.3,21.8,1.7,-31.1,5.73,2.31,-29.0,27.9
2012-06-17 00:44:00,0.0,1.9028,0.0009,399.43,0.29,6.2,15.4,138.07,30.46,24.64,36.47,1.05,-14.37,-26.95,-52,525,-917,21.4,24.5,0.3,21.8,1.7,-31.1,5.73,2.33,-29.0,27.9
2012-06-17 00:45:00,0.0,1.9030,0.0009,399.52,0.28,2.5,9.4,138.07,30.46,24.64,36.47,1.01,-15.31,-26.95,-52,525,-917,21.3,24.4,0.2,21.8,1.7,-31.1,5.73,2.36,-29.0,27.9
2012-06-17 00:46:00,0.0,1.9029,0.0009,399.43,0.26,4.4,12.0,138.07,30.46,24.64,36.46,0.94,-16.16,-26.96,-53,526,-917,21.4,24.3,0.1,21.8,1.7,-31.1,5.73,2.32,-29.0,27.8
2012-06-17 00:47:00,0.0,1.9030,0.0009,399.40,0.29,4.8,9.9,138.07,30.46,24.64,36.47,0.97,-16.95,-26.97,-53,525,-917,21.3,24.3,0.1,21.8,1.7,-31.1,5.73,2.33,-29.0,27.8
2012-06-17 00:48:00,0.0,1.9037,0.0009,399.40,0.32,2.9,10.4,138.07,30.46,24.64,36.47,1.02,-17.69,-26.98,-53,526,-918,21.3,24.2,0.0,21.8,1.7,-31.1,5.73,2.35,-29.1,27.8
2012-06-17 00:49:00,0.0,1.9030,0.0007,399.40,0.28,0.6,4.6,138.07,30.47,24.64,36.47,1.05,-18.37,-26.99,-52,526,-917,21.3,24.1,-0.0,21.8,1.7,-31.1,5.73,2.33,-29.1,27.8
2012-06-17 00:50:00,0.0,1.9030,0.0008,399.44,0.36,4.6,13.5,138.07,30.47,24.64,36.47,0.95,-18.99,-27.01,-53,526,-917,21.3,24.3,0.1,21.8,1.7,-31.1,5.73,2.33,-29.1,27.8
2012-06-17 00:51:00,0.0,1.9031,0.0008,399.35,0.33,4.7,11.1,138.07,30.47,24.64,36.48,0.96,-19.63,-27.02,-53,526,-917,21.3,24.3,0.1,21.8,1.7,-31.2,5.73,2.35,-29.1,27.8
2012-06-17 00:52:00,0.0,1.9035,0.0011,399.61,0.28,2.0,9.6,138.07,30.47,24.64,36.46,1.01,-20.21,-27.03,-53,525,-917,21.3,24.4,0.1,21.8,1.7,-31.3,5.73,2.34,-29.1,27.8
2012-06-17 00:53:00,0.0,1.9033,0.0007,399.57,0.32,4.1,12.5,138.07,30.47,24.64,36.47,1.05,-20.77,-27.04,-53,526,-917,21.3,24.3,0.1,21.8,1.7,-31.3,5.73,2.32,-29.1,27.8
2012-06-17 00:54:00,0.0,1.9028,0.0009,399.59,0.31,1.8,7.9,138.07,30.47,24.64,36.46,0.99,-21.30,-27.06,-53,526,-917,21.3,24.2,0.1,21.8,1.7,-31.3,5.73,2.35,-29.1,27.8
2012-06-17 00:55:00,0.0,1.9035,0.0008,399.46,0.33,3.7,12.0,138.07,30.47,24.64,36.47,0.94,-21.80,-27.07,-53,526,-917,21.3,24.2,0.1,21.8,1.7,-31.3,5.73,2.35,-29.1,27.7
2012-06-17 00:56:00,0.0,1.9029,0.0009,399.52,0.31,3.5,12.4,138.07,30.47,24.65,36.47,0.99,-22.28,-27.08,-53,526,-917,21.3,24.2,0.0,21.8,1.7,-31.3,5.73,2.32,-29.2,27.7
2012-06-17 00:57:00,0.0,1.9036,0.0009,399.64,0.32,1.9,8.1,138.07,30.47,24.64,36.47,1.03,-22.73,-27.10,-53,526,-918,21.3,24.2,-0.0,21.8,1.7,-31.3,5.73,2.35,-29.2,27.7
2012-06-17 00:58:00,0.0,1.9031,0.0009,399.58,0.27,2.8,8.9,138.07,30.47,24.64,36.47,1.02,-23.15,-27.12,-53,526,-917,21.3,24.2,0.0,21.8,1.7,-31.3,5.73,2.36,-29.2,27.7
2012-06-17 00:59:00,0.0,1.9028,0.0010,399.53,0.31,0.7,7.0,138.07,30.47,24.64,36.47,0.96,-23.56,-27.13,-53,526,-917,21.3,24.3,0.0,21.8,1.7,-31.3,5.73,2.33,-29.2,27.7
2012-06-17 01:00:00,0.0,1.9029,0.0009,399.50,0.28,1.7,8.5,138.07,30.47,24.64,36.48,0.94,-23.94,-27.14,-53,526,-917,21.3,24.3,0.1,21.8,1.7,-31.3,5.73,2.34,-29.2,27.8
2012-06-17 01:01:00,0.0,1.9032,0.0008,399.46,0.28,3.0,10.5,138.07,30.47,24.64,36.47,0.99,-24.31,-27.16,-53,526,-918,21.3,24.3,0.1,21.8,1.7,-31.5,5.73,2.36,-29.2,27.7
2012-06-17 01:02:00,0.0,1.9035,0.0010,399.50,0.29,3.1,11.2,138.07,30.47,24.64,36.47,1.03,-24.64,-27.17,-53,526,-917,21.3,24.3,0.1,21.8,1.7,-31.5,5.73,2.34,-29.2,27.8
2012-06-17 01:03:00,0.0,1.9038,0.0011,399.55,0.28,2.3,9.8,138.07,30.48,24.64,36.47,1.01,-24.96,-27.18,-53,526,-917,21.3,24.4,0.1,21.8,1.7,-31.4,5.73,2.33,-29.2,27.7
2012-06-17 01:04:00,0.0,1.9029,0.0008,399.52,0.34,2.8,8.7,138.07,30.48,24.64,36.47,0.95,-25.27,-27.20,-53,526,-917,21.3,24.6,0.2,21.8,1.7,-31.4,5.73,2.36,-29.2,27.7
2012-06-17 01:05:00,0.0,1.9033,0.0007,399.65,0.23,3.5,10.3,138.07,30.47,24.64,36.47,0.95,-25.55,-27.21,-53,526,-917,21.3,24.6,0.2,21.8,1.7,-31.5,5.73,2.35,-29.2,27.7
2012-06-17 01:06:00,0.0,1.9033,0.0010,399.64,0.30,0.7,4.4,138.07,30.47,24.64,36.47,0.99,-25.81,-27.22,-53,526,-917,21.3,24.5,0.2,21.8,1.7,-31.4,5.73,2.33,-29.2,27.7
2012-06-17 01:07:00,0.0,1.9029,0.0009,399.54,0.26,2.0,10.1,138.07,30.47,24.64,36.47,1.04,-26.07,-27.23,-53,525,-917,21.3,24.6,0.3,21.8,1.7,-31.5,5.73,2.36,-29.2,27.7
2012-06-17 01:08:00,0.0,1.9031,0.0009,399.45,0.32,2.7,11.4,138.07,30.47,24.64,36.47,1.02,-26.31,-27.24,-53,526,-917,21.3,25.0,0.5,21.8,1.7,-31.5,5.73,2.36,-29.2,27.7
2012-06-17 01:09:00,0.0,1.9026,0.0008,399.43,0.32,1.3,6.4,138.07,30.47,24.64,36.48,0.94,-26.52,-27.25,-53,526,-917,21.3,24.9,0.4,21.8,1.7,-31.5,5.73,2.33,-29.2,27.7
2012-06-17 01:10:00,0.0,1.9031,0.0010,399.48,0.29,2.4,8.6,138.07,30.47,24.64,36.47,0.95,-26.73,-27.26,-53,526,-917,21.3,25.0,0.5,21.8,1.7,-31.4,5.73,2.34,-29.2,27.7
2012-06-17 01:11:00,0.0,1.9036,0.0007,399.53,0.32,2.8,8.9,138.06,30.48,24.64,36.47,0.99,-26.93,-27.27,-53,525,-917,21.3,24.7,0.3,21.8,1.7,-31.5,5.73,2.36,-29.2,27.7
2012-06-17 01:12:00,0.0,1.9033,0.0009,399.45,0.29,2.2,7.9,138.07,30.48,24.64,36.47,1.03,-27.11,-27.28,-53,525,-917,21.3,24.8,0.3,21.8,1.7,-31.5,5.73,2.35,-29.2,27.7
2012-06-17 01:13:00,0.0,1.9032,0.0009,399.46,0.24,2.3,10.2,138.07,30.48,24.64,36.47,0.97,-27.21,-27.28,-53,525,-917,21.3,24.7,0.3,21.8,1.7,-31.5,5.73,2.33,-29.2,27.7
2012-06-17 01:14:00,0.0,1.9034,0.0010,399.35,0.33,3.0,8.4,138.07,30.48,24.64,36.47,1.04,-26.86,-27.29,-53,525,-917,21.3,25.0,0.5,21.8,1.7,-31.5,5.73,2.36,-29.2,27.7
2012-06-17 01:15:00,0.0,1.9034,0.0011,399.50,0.31,1.9,9.6,138.07,30.48,24.64,36.47,1.00,-26.90,-27.30,-53,525,-917,21.3,24.9,0.4,21.8,1.7,-31.5,5.73,2.35,-29.2,27.8
2012-06-17 01:16:00,0.0,1.9028,0.0008,399.44,0.31,0.8,5.7,138.07,30.48,24.64,36.47,0.93,-27.05,-27.30,-53,525,-917,21.3,25.0,0.4,21.8,1.7,-31.6,5.73,2.33,-29.2,27.7
2012-06-17 01:17:00,0.0,1.9032,0.0011,399.52,0.35,0.6,6.8,138.07,30.48,24.64,36.47,0.97,-27.22,-27.31,-53,525,-917,21.3,25.1,0.5,21.8,1.7,-31.7,5.73,2.35,-29.2,27.6
2012-06-17 01:18:00,0.0,1.9034,0.0007,399.51,0.25,2.3,8.4,138.07,30.48,24.64,36.47,0.91,-27.13,-27.32,-53,525,-917,21.3,24.8,0.3,21.8,1.7,-31.6,5.73,2.37,-29.2,27.6
2012-06-17 01:19:00,0.0,1.9032,0.0010,399.39,0.31,3.2,10.8,138.07,30.48,24.64,36.47,1.03,-26.88,-27.33,-53,525,-917,21.3,24.8,0.4,21.8,1.7,-31.6,5.73,2.34,-29.2,27.7
2012-06-17 01:20:00,0.0,1.9032,0.0009,399.44,0.23,0.3,4.4,138.07,30.48,24.64,36.47,1.04,-26.98,-27.34,-53,525,-917,21.3,24.6,0.3,21.7,1.7,-31.6,5.73,2.34,-29.2,27.7
2012-06-17 01:21:00,0.0,1.9035,0.0009,399.41,0.27,2.9,8.9,138.07,30.48,24.64,36.47,0.95,-27.13,-27.35,-53,525,-916,21.3,24.5,0.2,21.7,1.7,-31.7,5.73,2.36,-29.2,27.7
2012-06-17 01:22:00,0.0,1.9031,0.0008,399.48,0.30,3.0,12.7,138.07,30.49,24.64,36.47,0.93,-27.29,-27.35,-53,526,-917,21.3,24.4,0.1,21.8,1.7,-31.6,5.73,2.35,-29.2,27.7
2012-06-17 01:23:00,0.0,1.9031,0.0011,399.45,0.28,2.3,8.5,138.07,30.49,24.64,36.47,0.94,-27.04,-27.25,-53,525,-917,21.3,24.4,0.2,21.8,1.7,-31.4,5.73,2.33,-29.2,27.7
2012-06-17 01:24:00,0.0,1.9030,0.0011,399.35,0.28,0.2,4.9,138.07,30.49,24.64,36.47,0.95,-26.94,-26.03,-53,526,-917,21.3,24.7,0.3,21.8,1.7,-31.2,5.73,2.37,-29.2,27.7
2012-06-17 01:25:00,0.0,1.9031,0.0009,399.39,0.30,3.0,9.8,138.07,30.49,24.64,36.46,0.79,-27.04,-24.12,-53,525,-917,21.3,24.7,0.3,21.8,1.9,-30.1,5.73,2.35,-29.2,27.7
2012-06-17 01:26:00,0.0,1.9034,0.0009,399.43,0.36,2.5,8.6,138.07,30.49,24.64,36.47,0.81,-27.10,-22.14,-53,525,-917,21.3,24.4,0.1,21.8,2.1,-29.2,5.73,2.33,-29.2,27.7
2012-06-17 01:27:00,0.0,1.9032,0.0010,399.36,0.29,4.6,15.9,138.07,30.49,24.64,36.47,0.90,-27.14,-20.21,-53,526,-917,21.3,24.4,0.2,21.8,2.2,-28.7,5.73,2.36,-29.2,27.7
2012-06-17 01:28:00,0.0,1.9030,0.0009,399.43,0.24,0.6,5.5,138.07,30.49,24.64,36.47,0.96,-27.15,-18.37,-53,525,-917,21.3,24.5,0.2,21.8,2.2,-28.4,5.73,2.36,-29.2,27.7
2012-06-17 01:29:00,0.0,1.9032,0.0009,399.37,0.29,1.2,7.2,138.07,30.49,24.64,36.47,0.88,-27.15,-16.61,-53,525,-917,21.3,24.6,0.3,21.8,2.2,-28.5,5.73,2.33,-29.2,27.7
2012-06-17 01:30:00,0.0,1.9032,0.0009,399.29,0.32,1.2,8.1,138.07,30.49,24.64,36.48,0.79,-27.15,-14.95,-53,525,-917,21.3,24.5,0.2,21.8,2.2,-28.6,5.73,2.36,-29.2,27.7
2012-06-17 01:31:00,0.0,1.9032,0.0009,399.42,0.30,3.6,12.2,138.07,30.49,24.64,36.47,0.85,-27.14,-13.38,-53,525,-917,21.3,24.6,0.2,21.8,2.2,-28.7,5.73,2.36,-29.2,27.7
2012-06-17 01:32:00,0.0,1.9030,0.0009,399.45,0.34,3.2,12.3,138.07,30.49,24.64,36.47,0.91,-27.13,-11.88,-53,525,-917,21.3,24.5,0.2,21.8,2.2,-28.9,5.73,2.33,-29.2,27.8
2012-06-17 01:33:00,0.0,1.9031,0.0008,399.50,0.28,1.7,7.9,138.07,30.49,24.64,36.47,0.95,-27.11,-10.46,-53,525,-916,21.3,24.3,0.1,21.8,2.1,-29.0,5.73,2.36,-29.2,27.8
2012-06-17 01:34:00,0.0,1.9030,0.0009,399.49,0.27,4.7,12.4,138.07,30.49,24.64,36.46,0.88,-27.10,-9.13,-53,526,-917,21.3,24.2,0.1,21.8,2.1,-29.1,5.73,2.36,-29.1,27.8
2012-06-17 01:35:00,0.0,1.9033,0.0009,399.41,0.30,2.4,7.7,138.07,30.49,24.64,36.47,0.80,-27.08,-7.86,-53,525,-917,21.3,24.2,0.0,21.8,2.1,-29.3,5.73,2.33,-29.1,27.7
2012-06-17 01:36:00,0.0,1.9033,0.0009,399.54,0.30,2.6,8.3,138.07,30.49,24.64,36.47,0.87,-27.07,-6.64,-53,525,-917,21.3,24.1,0.0,21.8,2.1,-29.4,5.73,2.36,-29.1,27.8
2012-06-17 01:37:00,0.0,1.9032,0.0009,399.57,0.23,3.3,11.3,138.07,30.49,24.64,36.47,0.91,-27.05,-5.50,-53,525,-917,21.3,24.2,0.0,21.8,2.1,-29.4,5.73,2.33,-29.1,27.8
2012-06-17 01:38:00,0.0,1.9032,0.0010,399.51,0.30,3.2,10.1,138.07,30.49,24.64,36.46,0.95,-27.03,-4.41,-53,525,-917,21.3,24.3,0.1,21.8,2.0,-29.6,5.73,2.34,-29.1,27.8
2012-06-17 01:39:00,0.0,1.9036,0.0008,399.47,0.28,1.1,5.8,138.07,30.49,24.64,36.47,0.93,-27.01,-3.37,-53,525,-916,21.3,24.4,0.1,21.8,2.0,-29.6,5.73,2.36,-29.1,27.8
2012-06-17 01:40:00,0.0,1.9035,0.0008,399.52,0.33,2.7,9.5,138.07,30.49,24.64,36.46,0.83,-27.00,-2.38,-53,525,-917,21.3,24.4,0.2,21.8,2.0,-29.7,5.73,2.32,-29.1,27.8
2012-06-17 01:41:00,0.0,1.9032,0.0011,399.42,0.27,1.4,8.7,138.07,30.49,24.64,36.47,0.86,-26.98,-1.44,-52,525,-916,21.3,24.5,0.2,21.8,2.0,-29.7,5.73,2.35,-29.1,27.8
2012-06-17 01:42:00,0.0,1.9031,0.0010,399.38,0.32,5.8,13.5,138.07,30.48,24.64,36.47,0.89,-26.96,-0.54,-53,525,-917,21.3,24.6,0.3,21.8,2.0,-29.9,5.73,2.34,-29.1,27.8
2012-06-17 01:43:00,0.0,1.9029,0.0010,399.33,0.30,2.5,9.1,138.07,30.48,24.64,36.47,0.91,-26.95,0.31,-53,525,-916,21.3,24.8,0.4,21.8,2.0,-29.8,5.73,2.32,-29.1,27.8
2012-06-17 01:44:00,0.0,1.9029,0.0009,399.33,0.31,2.0,7.7,138.07,30.48,24.64,36.47,0.94,-26.93,1.12,-52,525,-917,21.3,24.6,0.3,21.8,2.0,-29.8,5.73,2.36,-29.1,27.9
2012-06-17 01:45:00,0.0,1.9028,0.0009,399.33,0.33,3.1,11.5,138.07,30.48,24.64,36.47,0.96,-26.92,1.88,-52,525,-916,21.3,24.6,0.3,21.8,1.9,-30.0,5.73,2.32,-29.0,27.9
2012-06-17 01:46:00,0.0,1.9027,0.0010,399.31,0.35,2.2,8.2,138.07,30.48,24.64,36.47,0.88,-26.90,2.57,-52,525,-917,21.3,24.8,0.4,21.8,1.9,-30.0,5.73,2.34,-29.0,27.9
2012-06-17 01:47:00,0.0,1.9033,0.0008,399.26,0.34,5.2,15.0,138.07,30.48,24.64,36.47,0.85,-26.89,3.05,-52,525,-916,21.3,24.6,0.3,21.8,1.9,-30.0,5.73,2.34,-29.0,27.9
2012-06-17 01:48:00,0.0,1.9031,0.0010,399.30,0.27,6.9,15.7,138.07,30.48,24.64,36.47,0.86,-26.87,3.27,-52,525,-917,21.3,24.7,0.4,21.8,1.9,-30.2,5.73,2.32,-29.0,27.9
2012-06-17 01:49:00,0.0,1.9029,0.0011,399.20,0.31,3.4,10.1,138.07,30.49,24.64,36.48,0.89,-26.85,3.58,-53,525,-916,21.3,24.9,0.4,21.8,1.9,-30.1,5.73,2.35,-29.0,27.9
2012-06-17 01:50:00,0.0,1.9028,0.0007,399.35,0.34,5.2,12.0,138.07,30.48,24.64,36.47,0.91,-26.84,4.06,-52,525,-917,21.4,24.8,0.4,21.8,1.9,-30.1,5.73,2.32,-29.0,27.9
2012-06-17 01:51:00,0.0,1.9029,0.0010,399.40,0.26,5.3,11.8,138.07,30.49,24.64,36.47,0.94,-26.82,4.64,-52,525,-916,21.4,24.7,0.4,21.8,1.9,-30.1,5.73,2.34,-29.0,27.9
2012-06-17 01:52:00,0.0,1.9025,0.0007,399.33,0.29,7.2,12.1,138.07,30.48,24.64,36.47,0.96,-26.81,5.21,-52,525,-917,21.4,24.8,0.4,21.8,1.9,-30.2,5.73,2.34,-29.0,27.9
2012-06-17 01:53:00,0.0,1.9027,0.0009,399.28,0.30,2.1,7.4,138.07,30.48,24.64,36.47,0.92,-26.79,5.75,-52,525,-916,21.4,24.8,0.5,21.8,1.9,-30.3,5.73,2.32,-28.9,28.0
2012-06-17 01:54:00,0.0,1.9027,0.0009,399.17,0.30,3.7,10.5,138.07,30.48,24.64,36.47,0.86,-26.78,6.26,-52,525,-917,21.4,24.9,0.5,21.8,1.9,-30.3,5.73,2.35,-28.9,28.0
2012-06-17 01:55:00,0.0,1.9029,0.0009,399.25,0.37,4.3,12.3,138.07,30.49,24.64,36.47,0.87,-26.76,6.75,-53,525,-916,21.4,25.0,0.5,21.8,1.9,-30.3,5.73,2.31,-28.9,28.0
2012-06-17 01:56:00,0.0,1.9026,0.0009,399.25,0.28,4.4,11.3,138.07,30.49,24.64,36.47,0.89,-26.74,7.22,-52,525,-917,21.4,24.8,0.4,21.9,1.9,-30.3,5.73,2.34,-28.9,28.0
2012-06-17 01:57:00,0.0,1.9023,0.0009,399.21,0.27,5.5,12.2,138.07,30.49,24.64,36.47,0.89,-26.73,7.67,-52,525,-917,21.4,24.6,0.3,21.9,1.9,-30.3,5.73,2.32,-28.9,28.0
2012-06-17 01:58:00,0.0,1.9020,0.0010,399.30,0.24,2.9,8.7,138.07,30.49,24.65,36.47,0.93,-26.72,8.09,-52,525,-917,21.4,24.6,0.3,21.9,1.9,-30.3,5.73,2.32,-28.9,28.0
2012-06-17 01:59:00,0.0,1.9025,0.0010,399.28,0.29,7.1,15.5,138.07,30.49,24.64,36.47,0.94,-26.71,8.50,-52,525,-917,21.4,24.8,0.5,21.9,1.9,-30.3,5.73,2.34,-28.8,28.0
2012-06-17 02:00:00,0.0,1.9026,0.0008,399.08,0.31,2.5,10.4,138.07,30.49,24.64,36.48,0.95,-26.69,8.89,-52,525,-917,21.5,25.0,0.6,21.9,1.9,-30.3,5.73,2.30,-28.8,28.0
2012-06-17 02:01:00,0.0,1.9028,0.0010,399.21,0.35,7.6,18.2,138.07,30.49,24.64,36.47,0.92,-26.68,9.27,-52,525,-917,21.4,25.0,0.6,21.9,1.9,-30.3,5.73,2.35,-28.8,28.0
2012-06-17 02:02:00,0.0,1.9027,0.0008,399.12,0.33,8.4,15.9,138.07,30.50,24.64,36.47,0.88,-26.67,9.65,-52,525,-917,21.5,25.0,0.6,21.9,1.9,-30.2,5.73,2.30,-28.8,28.0
2012-06-17 02:03:00,0.0,1.9027,0.0011,399.25,0.28,9.3,15.5,138.07,30.50,24.64,36.47,0.87,-26.66,10.01,-52,525,-917,21.5,25.0,0.6,21.9,1.9,-30.2,5.73,2.34,-28.8,28.1
2012-06-17 02:04:00,0.0,1.9026,0.0007,399.14,0.28,5.7,14.4,138.07,30.49,24.64,36.47,0.89,-26.65,10.36,-52,525,-916,21.5,25.1,0.6,21.9,1.9,-30.2,5.73,2.32,-28.8,28.1
2012-06-17 02:05:00,0.0,1.9033,0.0009,399.13,0.30,3.9,10.8,138.07,30.49,24.64,36.47,0.89,-26.64,10.68,-52,525,-917,21.5,24.9,0.6,21.9,1.9,-30.2,5.73,2.32,-28.8,28.1
2012-06-17 02:06:00,0.0,1.9028,0.0008,399.23,0.27,7.6,16.5,138.07,30.49,24.64,36.47,0.91,-26.63,11.01,-52,525,-917,21.5,24.8,0.5,21.9,1.9,-30.2,5.73,2.33,-28.8,28.1
2012-06-17 02:07:00,0.0,1.9026,0.0009,399.27,0.28,6.3,16.0,138.07,30.49,24.64,36.47,0.93,-26.62,11.33,-52,525,-917,21.5,24.8,0.5,21.9,1.9,-30.2,5.73,2.30,-28.8,28.1
2012-06-17 02:08:00,0.0,1.9027,0.0010,399.17,0.28,4.9,14.2,138.07,30.49,24.64,36.47,0.94,-26.61,11.63,-52,526,-917,21.5,24.6,0.4,21.9,1.9,-30.2,5.73,2.34,-28.8,28.1
2012-06-17 02:09:00,0.0,1.9029,0.0010,399.36,0.32,4.5,9.5,138.07,30.49,24.64,36.47,0.95,-26.60,11.94,-52,526,-917,21.5,24.4,0.3,22.0,1.9,-30.2,5.73,2.30,-28.8,28.2
2012-06-17 02:10:00,0.0,1.9026,0.0008,399.30,0.28,3.7,10.7,138.07,30.49,24.64,36.47,0.93,-26.59,12.23,-52,526,-917,21.5,24.4,0.3,22.0,1.9,-30.2,5.73,2.33,-28.7,28.2
2012-06-17 02:11:00,0.0,1.9027,0.0009,399.41,0.29,7.0,12.6,138.07,30.49,24.64,36.47,0.90,-26.58,12.50,-52,526,-917,21.5,24.4,0.3,22.0,1.9,-30.2,5.73,2.31,-28.7,28.2
2012-06-17 02:12:00,0.0,1.9029,0.0009,399.40,0.27,5.6,12.8,138.07,30.49,24.64,36.47,0.86,-26.58,12.77,-52,526,-916,21.5,24.3,0.3,22.0,1.9,-30.2,5.73,2.32,-28.7,28.2
2012-06-17 02:13:00,0.0,1.9033,0.0010,399.31,0.32,6.6,13.9,138.07,30.49,24.64,36.47,0.90,-26.56,13.02,-52,526,-917,21.6,24.2,0.2,22.0,1.9,-30.2,5.73,2.33,-28.7,28.2
2012-06-17 02:14:00,0.0,1.9032,0.0008,399.41,0.32,6.1,13.5,138.07,30.49,24.64,36.47,0.89,-26.56,13.27,-52,526,-917,21.5,24.1,0.2,22.0,1.9,-30.2,5.73,2.30,-28.7,28.1
2012-06-17 02:15:00,0.0,1.9032,0.0009,399.39,0.26,9.1,17.1,138.07,30.49,24.64,36.47,0.89,-26.55,13.51,-52,526,-916,21.6,24.0,0.1,22.0,1.9,-30.2,5.73,2.34,-28.7,28.2
2012-06-17 02:16:00,0.0,1.9031,0.0009,399.49,0.31,9.5,14.9,138.07,30.49,24.64,36.47,0.92,-26.55,13.73,-52,526,-917,21.6,23.9,0.1,22.0,1.9,-30.3,5.73,2.30,-28.7,28.2
2012-06-17 02:17:00,0.0,1.9030,0.0008,399.43,0.28,5.3,12.4,138.07,30.49,24.64,36.47,0.94,-26.54,13.94,-52,526,-917,21.6,24.0,0.1,22.0,1.9,-30.3,5.73,2.34,-28.7,28.2
2012-06-17 02:18:00,0.0,1.9032,0.0008,399.37,0.31,7.5,16.9,138.07,30.49,24.64,36.47,0.94,-26.54,14.15,-52,526,-917,21.6,24.1,0.2,22.0,1.9,-30.3,5.73,2.30,-28.7,28.2
2012-06-17 02:19:00,0.0,1.9033,0.0010,399.31,0.29,6.8,12.6,138.07,30.49,24.64,36.47,0.95,-26.52,14.34,-52,526,-917,21.6,24.2,0.3,22.0,1.9,-30.2,5.73,2.33,-28.7,28.2
2012-06-17 02:20:00,0.0,1.9030,0.0010,399.36,0.27,8.2,16.6,138.07,30.50,24.64,36.47,0.94,-26.52,14.54,-52,526,-916,21.6,24.2,0.3,22.0,1.9,-30.2,5.73,2.32,-28.7,28.2
2012-06-17 02:21:00,0.0,1.9027,0.0008,399.35,0.30,11.4,20.1,138.07,30.50,24.64,36.47,0.91,-26.51,14.71,-52,526,-917,21.6,24.2,0.2,22.0,1.9,-30.2,5.73,2.31,-28.7,28.2
2012-06-17 02:22:00,0.0,1.9024,0.0012,399.36,0.30,6.1,14.9,138.07,30.50,24.64,36.46,0.90,-26.51,14.89,-52,526,-917,21.6,24.2,0.2,22.0,1.9,-30.2,5.73,2.33,-28.7,28.2